Вернуться в каталог

TRANSIT 10 DEB

АктивенPO
NORAD 24705·DEBRIS·🇺🇸 United States

Запущен Dec 22, 1965 с Vandenberg Space Force Base

Loading…

Ближайшие Пролёты (ближайшие 24 часа)

TLE

СвежийSource: Space-Track

Эпоха: Sep 14, 2026, 06:40 UTC

1 24705U 65109E   26257.27839949  .00001894  00000-0  97651-3 0  9995
2 24705  89.0792 189.2699 0076421 140.4747  11.5658 14.13242310513428

Отслеживайте TRANSIT 10 DEB в реальном времени с AllMySat

Download on the App Store